Theta_e
345 345 348 349 348 345 342 343 345 346 343 346 346 348 348 348 349 350 346 344 346 341 341 347 343 347 345 345 344 343 344 342 342 342 340 340 342 341 341 342 342 343 344
346 346 348 348 346 344 341 343 343 345 339 344 346 347 348 348 350 350 347 348 344 341 341 346 346 344 344 342 340 347 342 342 342 341 341 340 342 341 340 341 341 342 342
347 347 349 348 345 345 342 340 341 344 337 345 346 348 350 349 344 350 349 348 345 344 345 341 347 341 343 343 340 341 342 341 341 338 342 342 341 343 341 342 340 342 341
349 348 348 348 345 344 345 344 339 345 340 342 347 350 348 347 348 349 350 350 346 343 343 342 340 341 347 347 341 344 344 342 339 341 343 341 344 344 342 340 340 341 341
348 348 348 348 346 345 345 346 346 340 348 341 345 349 347 347 349 350 349 351 342 343 346 343 343 342 348 343 348 341 339 341 339 340 343 343 347 348 345 341 340 340 341
348 347 348 348 347 345 347 347 348 341 341 344 340 343 350 350 347 349 348 346 348 347 346 342 342 342 348 342 343 348 339 347 342 342 343 345 347 346 345 343 343 343 344
350 349 348 348 347 345 347 348 349 343 341 341 342 340 341 343 350 348 346 351 352 349 346 343 342 345 341 343 345 340 348 341 346 337 345 345 348 349 348 346 344 345 345
351 350 349 348 348 347 348 349 349 343 343 342 341 342 340 348 349 349 347 349 349 350 351 344 347 349 342 345 340 346 345 347 346 346 346 347 348 349 349 349 347 344 344
351 351 349 349 348 349 349 350 350 344 344 344 343 342 341 340 348 349 350 348 349 350 353 350 350 348 345 347 344 350 342 349 344 348 343 347 348 349 349 349 349 348 346
351 351 351 350 349 349 349 350 350 350 344 344 345 343 342 341 340 347 350 349 349 349 351 353 353 350 347 342 343 349 347 345 348 346 350 345 347 348 348 348 348 349 348
347 350 351 350 350 350 350 350 350 351 351 347 347 346 346 342 340 340 346 349 349 350 351 344 346 351 350 346 343 350 351 350 350 348 350 348 348 347 347 349 349 349 349
328 342 347 349 349 349 350 350 350 350 351 351 350 346 345 348 349 341 340 343 348 349 351 343 343 344 352 351 343 345 350 350 350 351 350 350 348 342 344 349 350 349 350
319 328 339 343 345 346 348 349 349 349 349 350 350 345 345 345 348 346 341 341 341 342 350 352 345 342 346 352 346 345 351 353 352 352 351 351 351 350 347 351 349 349 351
315 314 318 328 334 342 346 346 347 348 349 350 350 350 346 344 348 348 342 341 341 340 338 348 352 348 350 350 347 347 348 353 352 354 353 351 351 352 352 351 352 352 351
314 314 312 312 314 325 335 340 340 343 345 348 350 350 350 350 348 349 349 342 341 342 339 337 345 350 352 350 352 353 353 353 352 355 354 352 348 345 348 352 352 353 353
315 314 313 312 312 311 314 327 334 341 342 344 345 349 351 352 351 347 343 346 346 341 342 342 339 340 345 347 348 350 354 354 353 353 353 347 346 339 337 335 334 340 350
315 315 313 312 312 312 312 312 321 334 340 344 344 343 347 350 354 353 351 345 343 345 343 342 342 342 339 338 343 345 345 350 352 353 352 353 349 347 344 341 338 337 337
313 313 313 314 314 312 312 312 312 313 329 342 344 345 343 346 349 351 352 352 351 350 350 348 343 343 343 342 340 334 336 343 347 350 352 351 348 350 351 346 349 344 342
312 312 312 313 315 316 314 312 312 312 311 317 335 341 344 345 345 348 348 349 352 352 351 351 350 345 344 344 343 343 340 337 334 344 346 349 350 346 339 338 348 349 349
311 311 311 312 314 316 316 316 317 312 311 312 314 328 336 343 342 344 346 348 349 349 351 353 352 351 346 345 345 344 343 345 344 337 335 334 338 342 340 336 335 338 339
310 310 311 312 313 314 315 316 317 318 312 311 312 314 323 329 339 342 343 346 350 349 349 349 353 353 351 348 346 346 345 346 347 347 344 342 341 332 328 329 331 332 336
309 309 310 311 312 313 314 315 316 316 313 311 311 311 312 314 322 331 340 343 345 347 350 350 351 354 353 352 348 348 348 347 348 348 348 348 347 346 345 341 331 327 327
307 307 307 307 308 310 312 313 314 314 314 313 311 311 311 312 314 320 322 325 343 345 347 349 351 354 356 355 353 350 350 350 349 350 351 351 351 351 350 349 344 341 337
306 306 305 306 306 308 309 311 312 312 313 313 314 311 311 312 312 318 328 331 332 344 347 349 349 351 355 355 357 356 354 351 351 351 351 351 350 350 350 349 347 345 340
307 306 306 306 306 306 307 308 308 309 310 312 314 316 317 313 314 321 326 330 328 338 341 347 350 352 353 354 355 356 357 356 353 352 352 352 351 352 351 350 349 349 346
306 306 306 305 304 305 306 307 306 306 308 310 312 314 317 319 320 322 322 325 323 318 323 323 336 348 351 353 353 354 352 352 353 353 351 353 354 353 353 352 350 350 349
Wind_Speed
26 25 23 20 17 17 18 19 18 18 19 17 15 13 9 8 7 6 5 5 6 5 7 7 9 9 7 7 6 7 7 4 4 3 2 2 2 1 1 1 1 0 2
27 27 24 21 19 18 19 19 19 19 21 17 15 12 11 8 7 6 6 5 6 7 7 9 9 10 7 7 8 6 6 4 4 4 3 3 4 4 2 1 1 1 2
28 28 26 24 21 20 20 20 20 20 22 17 17 13 11 9 9 7 6 6 7 6 9 10 9 11 10 7 7 5 6 4 2 4 4 1 6 3 4 4 3 3 3
27 29 28 27 25 22 20 19 20 19 20 21 16 14 11 8 8 7 8 6 7 5 9 12 11 9 8 9 7 5 4 6 5 2 3 4 3 3 8 5 3 4 4
26 29 30 28 26 24 21 20 20 20 19 19 17 15 14 10 9 8 10 8 7 7 7 11 12 8 8 9 9 8 5 6 5 2 2 3 4 7 1 8 6 6 5
25 27 28 28 29 26 24 21 22 24 22 20 20 19 14 13 11 11 9 8 5 8 9 9 12 11 10 10 9 8 6 6 6 3 1 1 2 6 5 6 5 6 4
25 27 28 30 30 29 26 23 22 25 25 24 21 20 18 16 14 12 10 9 8 7 9 9 10 8 8 10 11 10 9 7 4 5 3 2 3 5 5 4 4 4 4
26 26 28 29 30 29 26 25 22 22 23 27 26 23 21 16 16 13 12 11 9 8 9 10 9 9 10 10 10 7 10 10 6 6 7 4 3 1 3 4 2 3 3
23 24 25 26 28 29 28 26 23 24 22 21 26 26 24 20 17 16 14 13 12 11 11 10 10 10 9 10 10 9 12 11 10 7 7 6 6 3 1 1 2 0 1
14 19 22 22 24 26 27 25 24 24 25 23 20 25 26 24 21 19 17 15 14 14 14 14 13 11 11 10 9 10 10 12 11 10 11 10 8 7 5 4 4 3 3
15 3 4 18 18 20 23 24 25 24 23 24 23 22 24 26 23 22 20 19 17 16 17 17 15 14 13 12 12 11 11 10 11 12 12 12 13 9 9 8 7 7 7
23 20 12 10 11 15 18 20 21 23 23 22 23 25 25 24 22 24 23 20 20 18 18 17 18 17 15 15 14 13 11 11 11 11 12 13 12 16 14 11 11 10 10
23 23 18 15 14 10 6 11 16 18 19 19 21 26 26 26 26 25 25 24 22 22 19 18 18 17 17 17 17 15 14 13 12 11 12 12 13 15 13 13 12 10 10
22 23 26 23 17 9 10 11 3 6 14 19 18 20 26 28 24 26 28 27 26 24 25 23 20 20 18 18 18 17 16 15 15 15 14 14 14 14 13 13 13 12 13
21 21 22 23 22 18 11 8 7 2 5 11 16 18 19 20 23 24 27 30 29 28 26 27 26 24 20 20 21 20 19 18 17 16 17 15 16 17 16 14 14 14 14
20 19 18 20 21 21 17 9 7 3 3 8 14 16 19 18 20 22 26 29 31 33 32 29 28 28 27 26 27 25 20 20 19 18 19 18 18 16 16 17 18 20 19
16 17 20 20 19 19 18 17 12 7 3 4 7 15 20 19 19 20 21 26 32 33 35 36 33 33 32 32 33 33 28 23 22 22 22 21 21 22 21 20 20 20 20
16 16 16 17 19 16 14 14 14 12 6 4 1 6 11 16 17 20 22 23 25 27 31 34 37 38 37 34 33 36 37 35 31 27 25 25 26 25 24 22 21 22 21
15 15 16 17 18 17 19 16 12 13 13 11 6 6 3 9 12 19 24 25 25 26 27 29 32 36 38 37 36 35 36 38 42 40 38 34 31 31 31 28 25 24 24
17 18 18 17 16 17 18 18 18 18 14 13 12 10 9 9 11 19 26 28 28 29 26 26 29 31 36 37 37 37 37 33 34 39 42 45 44 40 38 37 35 35 32
16 18 19 18 16 17 18 18 18 18 20 18 16 15 14 9 9 13 20 25 27 28 27 29 27 29 31 37 40 39 39 38 34 34 35 36 39 42 43 43 42 42 36
17 16 17 17 19 18 18 19 19 19 22 22 23 20 18 16 15 18 18 17 23 28 29 30 28 28 30 33 38 39 40 41 37 38 34 34 36 39 39 39 41 41 40
18 18 18 19 18 19 19 22 22 23 24 25 25 27 24 23 21 20 20 19 16 22 28 30 27 28 27 29 33 39 40 40 40 39 35 35 36 36 37 39 39 35 36
18 18 20 20 20 18 20 23 24 24 25 27 27 27 30 30 28 23 20 21 18 18 20 24 32 29 27 27 28 29 34 37 39 41 41 39 39 36 34 35 38 38 38
17 18 19 21 24 23 22 21 24 25 27 27 27 26 26 32 31 27 23 22 25 20 19 23 23 28 30 30 29 29 27 23 31 38 39 37 35 34 33 31 31 28 31
20 19 20 23 25 25 25 24 25 25 27 28 27 25 25 26 26 27 27 26 31 31 26 28 28 29 27 28 29 31 35 29 27 28 30 32 32 33 31 30 30 29 31
Wind_Direction
192 193 194 189 190 191 188 188 185 189 181 180 180 180 177 190 188 179 193 176 182 166 144 144 153 151 150 149 127 126 125 124 122 112 93 73 61 24 31 53 101 7 62
189 193 197 192 192 189 188 191 192 193 188 186 183 186 190 201 197 198 196 180 162 166 159 156 160 164 172 152 140 134 142 133 114 81 78 86 112 72 74 80 123 146 106
189 194 195 191 191 192 188 192 193 195 192 189 190 201 198 195 200 194 186 196 171 166 173 161 162 170 156 173 159 131 151 145 174 66 32 316 62 133 70 69 111 91 88
198 193 195 193 192 195 194 195 197 197 200 199 201 199 197 202 198 194 190 193 175 174 178 177 178 180 178 188 188 163 161 154 157 97 40 53 55 17 115 87 101 95 88
203 200 199 197 195 196 200 199 203 207 201 210 202 208 201 206 208 192 206 185 193 187 183 193 190 180 164 185 182 183 180 169 159 155 81 49 75 61 15 107 108 104 98
201 206 201 198 198 198 202 203 208 214 217 217 216 219 217 199 202 201 218 198 202 194 196 192 190 191 188 196 196 195 197 177 185 188 143 108 76 75 89 109 109 112 104
199 199 199 200 200 200 202 204 209 220 221 227 227 229 225 218 213 209 204 205 200 215 215 203 192 197 207 198 201 213 208 208 209 197 185 176 130 88 88 83 113 112 116
200 200 201 201 202 202 202 205 211 224 224 227 229 232 232 223 220 221 209 216 212 214 212 209 205 204 206 199 202 205 203 213 210 210 187 180 192 154 92 87 84 161 141
202 199 200 203 203 205 206 206 209 223 230 231 230 231 236 227 221 220 227 221 218 214 215 203 202 203 201 205 211 193 206 210 213 223 218 187 215 223 243 338 51 35 275
192 199 202 202 204 207 209 211 213 220 232 238 238 234 235 237 234 230 227 222 225 217 218 215 211 207 213 213 202 211 215 210 211 213 224 207 220 233 246 254 271 283 269
63 167 188 202 204 208 210 215 217 220 226 235 237 234 233 238 240 244 238 235 232 229 223 227 227 221 217 219 215 206 212 217 222 218 225 226 227 226 241 250 256 262 271
50 63 115 155 185 205 212 214 219 222 227 228 234 237 237 233 231 240 249 238 234 230 230 230 231 231 220 220 218 211 213 216 222 227 225 231 233 238 235 245 251 251 256
52 61 76 85 104 122 159 210 220 224 229 235 232 238 240 238 236 237 243 247 237 235 228 232 233 234 230 223 224 226 220 223 225 229 231 232 233 235 230 244 245 260 268
55 57 58 62 61 103 128 114 111 223 230 235 240 238 242 243 239 238 240 245 245 238 237 232 232 234 232 232 231 227 228 230 234 234 235 235 232 235 241 241 248 251 252
41 39 41 47 48 54 86 161 122 124 285 229 235 245 243 240 237 234 236 245 248 249 243 241 238 237 233 236 233 232 233 235 237 237 238 238 235 238 236 235 252 245 257
27 24 27 27 29 35 37 38 42 91 29 283 263 233 242 243 240 240 237 238 245 249 250 246 244 240 236 235 236 235 235 238 240 240 241 240 245 240 242 247 245 244 248
13 11 7 6 11 12 14 17 14 2 359 334 301 268 235 238 242 242 242 239 240 241 246 247 246 247 248 240 238 243 239 240 244 243 243 242 245 253 251 252 252 253 254
356 354 352 350 346 352 357 358 2 1 336 17 47 356 275 246 246 251 246 244 243 239 237 242 244 246 249 249 248 247 249 247 243 244 245 244 239 238 244 246 248 253 255
340 337 336 332 335 337 333 335 334 333 343 338 297 249 232 253 245 257 256 256 246 242 239 239 240 242 245 248 249 248 248 247 250 247 247 245 246 247 248 249 246 248 250
327 326 325 326 323 324 327 324 327 319 320 319 316 305 289 263 260 263 257 255 249 246 241 242 241 241 242 245 246 247 247 245 246 251 252 253 251 251 253 253 254 254 253
324 321 320 316 317 316 316 315 316 317 307 304 301 301 298 291 251 278 267 254 254 247 243 243 241 241 243 242 243 241 241 241 243 244 246 248 252 253 251 253 254 255 258
328 324 316 310 308 309 309 307 307 308 302 294 288 287 285 287 278 273 265 256 263 256 249 246 246 246 246 245 244 242 239 240 239 241 246 249 251 256 259 256 254 256 258
327 323 316 309 304 301 299 299 300 303 300 295 283 281 279 278 279 279 271 268 262 264 257 250 246 248 245 248 253 247 244 243 242 243 244 246 248 254 258 258 257 254 252
330 328 325 317 310 302 292 289 293 295 297 292 289 278 276 275 274 276 277 272 258 258 262 260 249 244 248 244 243 254 253 243 243 247 248 247 249 249 252 257 257 250 246
322 320 319 318 313 305 296 291 288 290 289 288 286 284 278 268 274 270 268 267 263 255 254 260 260 250 244 245 243 242 241 248 247 244 247 248 248 248 247 247 242 246 245
315 314 309 306 311 303 296 292 290 286 281 279 278 277 273 271 266 270 272 267 268 260 251 257 253 246 246 240 240 245 245 238 249 252 242 240 243 242 243 242 241 241 239